DW1980 Weather Reports


Display with metric or nautical units.
time (UTC)temp
F
wind
direction
speed
MPH
gust
MPH
rain 1hr
in
rain 24hr
in
rain mn
in
humidity
%
barometer
mb
20260902203353 66 181 0.0 4.0 0.00 0.37 0.37 94 1020.3
20260902203128 66 181 2.0 4.0 0.00 0.37 0.37 94 1019.9
20260902203052 66 157 1.0 5.0 0.00 0.37 0.37 93 1019.9
20260902202841 66 157 0.0 4.0 0.00 0.37 0.37 94 1020.4
20260902202352 66 193 1.0 3.0 0.00 0.37 0.37 94 1020.3
20260902201841 66 161 0.0 3.0 0.00 0.37 0.37 94 1020.4
20260902201615 66 161 0.0 3.0 0.00 0.37 0.37 94 1020.0
20260902201544 66 0 0.0 4.0 0.00 0.37 0.37 93 1019.9
20260902201352 67 360 1.0 4.0 0.01 0.37 0.37 94 1020.4
20260902200842 67 274 1.0 4.0 0.03 0.37 0.37 94 1020.3
20260902200354 67 183 1.0 2.0 0.04 0.37 0.37 94 1020.4
20260902200057 66 5 0.0 3.0 0.04 0.37 0.37 93 1020.1
20260902200006 66 5 0.0 2.0 0.05 0.37 0.37 94 1020.1
20260902195900 67 5 1.0 3.0 0.05 0.37 0.37 94 1020.5
20260902195412 67 100 0.0 3.0 0.06 0.37 0.37 94 1020.4
20260902194900 67 142 1.0 3.0 0.12 0.37 0.37 94 1020.3
20260902194607 66 189 1.0 3.0 0.15 0.37 0.37 93 1020.0
20260902194553 66 144 0.0 4.0 0.15 0.37 0.37 93 1020.0
20260902194350 67 137 0.0 3.0 0.16 0.37 0.37 93 1020.4
20260902193839 66 275 0.0 2.0 0.18 0.37 0.37 93 1020.6
20260902193410 66 220 0.0 2.0 0.35 0.37 0.37 93 1020.6
20260902193115 66 220 0.0 2.0 0.36 0.37 0.37 93 1020.3
20260902193047 66 0 0.0 2.0 0.36 0.37 0.37 93 1020.3
20260902192837 67 220 1.0 2.0 0.36 0.37 0.37 93 1020.8
20260902192346 67 220 1.0 2.0 0.36 0.37 0.37 93 1020.8
20260902191856 67 318 0.0 2.0 0.36 0.37 0.37 93 1021.0
20260902191605 66 318 0.0 2.0 0.36 0.37 0.37 93 1020.6
20260902191545 66 0 0.0 2.0 0.35 0.36 0.36 92 1020.6
20260902191346 67 318 0.0 2.0 0.35 0.36 0.36 93 1021.0
20260902190857 67 198 0.0 2.0 0.33 0.34 0.34 93 1021.0
20260902190409 67 198 0.0 2.0 0.32 0.33 0.33 93 1021.1
20260902190113 66 198 0.0 3.0 0.32 0.33 0.33 93 1020.7
20260902190056 66 0 0.0 3.0 0.31 0.32 0.32 92 1020.6
20260902185855 67 175 1.0 3.0 0.31 0.32 0.32 92 1021.1
20260902185345 67 311 2.0 4.0 0.29 0.30 0.30 92 1021.5
20260902184853 67 67 1.0 4.0 0.23 0.24 0.24 92 1021.3
20260902184605 67 41 1.0 6.0 0.21 0.22 0.22 92 1021.3
20260902184550 67 27 1.0 10.0 0.21 0.22 0.22 91 1021.4
20260902184406 68 313 2.0 10.0 0.20 0.21 0.21 91 1022.0
20260902183835 68 76 3.0 10.0 0.16 0.17 0.17 91 1021.8
20260902183346 68 292 3.0 7.0 0.00 0.01 0.01 90 1022.2
20260902183127 68 300 2.0 4.0 0.00 0.01 0.01 90 1021.5
20260902183051 68 308 2.0 4.0 0.00 0.01 0.01 89 1021.5
20260902182852 68 314 2.0 4.0 0.00 0.01 0.01 90 1021.6
20260902182341 68 280 2.0 3.0 0.00 0.01 0.01 90 1021.1
20260902181850 68 319 1.0 7.0 0.00 0.01 0.01 91 1020.8
20260902181618 68 141 0.0 7.0 0.00 0.01 0.01 91 1020.4
20260902181552 68 0 1.0 7.0 0.00 0.01 0.01 90 1020.4
20260902181340 69 125 3.0 7.0 0.00 0.01 0.01 91 1020.8
20260902180849 69 196 0.0 1.0 0.00 0.01 0.01 90 1020.8
20260902180400 69 196 0.0 3.0 0.00 0.01 0.01 90 1020.9
20260902180105 68 196 0.0 3.0 0.00 0.01 0.01 90 1020.6
20260902175907 69 196 0.0 3.0 0.00 0.01 0.01 90 1021.0
20260902175353 69 141 1.0 3.0 0.00 0.01 0.01 90 1021.1
20260902174843 69 221 1.0 3.0 0.00 0.01 0.01 90 1021.1
20260902174610 69 193 0.0 3.0 0.00 0.01 0.01 90 1020.7
20260902174601 69 257 0.0 6.0 0.00 0.01 0.01 89 1020.6
20260902174351 69 101 1.0 6.0 0.00 0.01 0.01 90 1021.1
20260902173843 69 87 1.0 6.0 0.00 0.01 0.01 90 1021.2
20260902173353 69 32 1.0 4.0 0.00 0.01 0.01 90 1021.1
20260902173121 69 88 2.0 4.0 0.00 0.01 0.01 91 1020.7
20260902173103 69 196 0.0 6.0 0.00 0.01 0.01 90 1020.6
20260902172840 69 154 0.0 6.0 0.00 0.01 0.01 90 1021.2
20260902172351 69 130 1.0 6.0 0.00 0.01 0.01 90 1021.1
20260902171841 69 247 0.0 1.0 0.00 0.01 0.01 91 1021.1
20260902171610 68 213 0.0 1.0 0.00 0.01 0.01 91 1020.6
20260902171604 68 243 0.0 1.0 0.00 0.01 0.01 90 1020.6
20260902171352 69 146 0.0 1.0 0.00 0.01 0.01 91 1021.1
20260902170843 68 146 0.0 1.0 0.00 0.01 0.01 91 1021.2
20260902170338 68 147 0.0 3.0 0.00 0.01 0.01 91 1021.3
20260902170120 68 147 0.0 3.0 0.00 0.01 0.01 90 1020.9
20260902170053 68 0 0.0 4.0 0.00 0.01 0.01 90 1020.8
20260902165846 68 147 1.0 3.0 0.00 0.04 0.01 91 1021.4
20260902165355 68 155 0.0 2.0 0.00 0.04 0.01 91 1021.5
20260902164844 68 119 1.0 3.0 0.00 0.04 0.01 91 1021.5
20260902164610 68 172 0.0 3.0 0.00 0.04 0.01 91 1021.1
20260902164545 68 0 0.0 4.0 0.00 0.04 0.01 90 1021.1
20260902164354 68 172 0.0 3.0 0.00 0.04 0.01 91 1021.5
20260902163843 68 153 1.0 3.0 0.00 0.04 0.01 91 1021.6
20260902163416 68 170 0.0 3.0 0.00 0.04 0.01 91 1021.5
20260902163055 68 155 0.0 4.0 0.00 0.04 0.01 91 1020.9
20260902163004 68 155 0.0 4.0 0.00 0.04 0.01 91 1021.1
20260902162903 68 128 1.0 4.0 0.00 0.04 0.01 91 1021.4
20260902162351 68 158 1.0 3.0 0.00 0.04 0.01 91 1021.5
20260902161842 68 179 1.0 4.0 0.00 0.04 0.01 91 1021.4
20260902161606 68 157 0.0 3.0 0.00 0.04 0.01 91 1020.9
20260902161602 68 0 0.0 3.0 0.00 0.04 0.01 90 1020.8
20260902161352 68 157 1.0 3.0 0.00 0.04 0.01 91 1021.4
20260902160843 68 164 0.0 1.0 0.00 0.04 0.01 90 1021.4
20260902160354 68 164 0.0 3.0 0.00 0.04 0.01 91 1021.5
20260902160117 68 164 0.0 3.0 0.00 0.04 0.01 91 1021.2
20260902160051 68 0 1.0 4.0 0.00 0.04 0.01 90 1021.1
20260902155841 68 160 1.0 4.0 0.00 0.12 0.01 90 1021.6
20260902155351 68 153 0.0 1.0 0.00 0.12 0.01 90 1021.5
20260902154902 68 163 0.0 3.0 0.00 0.12 0.01 90 1021.5
20260902154608 68 163 0.0 3.0 0.00 0.12 0.01 90 1021.1
20260902154544 68 0 1.0 4.0 0.00 0.12 0.01 90 1021.1
20260902154351 69 175 1.0 4.0 0.00 0.12 0.01 91 1021.5
20260902153841 69 150 0.0 1.0 0.00 0.12 0.01 91 1021.5
20260902153352 68 342 0.0 1.0 0.00 0.12 0.01 91 1021.5
20260902153117 68 342 0.0 2.0 0.00 0.12 0.01 91 1021.1
20260902153053 68 0 0.0 2.0 0.00 0.12 0.01 90 1021.1
20260902152838 68 342 0.0 2.0 0.00 0.12 0.01 91 1021.6
20260902152349 68 342 0.0 3.0 0.00 0.12 0.01 90 1021.6
20260902151859 68 25 0.0 3.0 0.00 0.12 0.01 90 1021.5
20260902151605 68 157 0.0 2.0 0.00 0.12 0.01 90 1021.1
20260902151553 68 0 0.0 2.0 0.00 0.12 0.01 90 1021.0
20260902151347 68 165 1.0 2.0 0.00 0.12 0.01 90 1021.5
20260902150836 68 217 0.0 2.0 0.00 0.12 0.01 91 1021.7
20260902150346 68 159 0.0 2.0 0.00 0.12 0.01 90 1021.6
20260902150113 68 159 0.0 3.0 0.00 0.12 0.01 90 1021.2
20260902150052 68 0 0.0 3.0 0.00 0.12 0.01 90 1021.2
20260902145852 68 137 1.0 3.0 0.00 0.44 0.01 90 1021.7
20260902145341 68 157 0.0 2.0 0.00 0.44 0.01 90 1021.7
20260902144912 68 145 0.0 2.0 0.00 0.44 0.01 90 1021.6
20260902144619 68 145 0.0 2.0 0.00 0.44 0.01 91 1021.2
20260902144542 67 0 0.0 2.0 0.00 0.44 0.01 90 1021.2
20260902144341 68 105 1.0 2.0 0.00 0.44 0.01 91 1021.6
20260902143851 68 284 1.0 2.0 0.00 0.44 0.01 91 1021.4
20260902143343 68 209 1.0 4.0 0.00 0.44 0.01 91 1021.5
20260902143107 67 132 0.0 4.0 0.00 0.44 0.01 91 1021.1
20260902143056 67 0 0.0 4.0 0.00 0.44 0.01 91 1021.0
20260902142850 67 132 2.0 4.0 0.00 0.44 0.01 92 1021.4
20260902142341 67 108 1.0 4.0 0.00 0.44 0.01 92 1021.3
20260902141852 66 162 1.0 4.0 0.00 0.44 0.01 92 1021.3
20260902141554 66 0 1.0 4.0 0.00 0.44 0.01 91 1021.0
20260902141508 66 341 1.0 3.0 0.00 0.44 0.01 92 1021.1
20260902141403 66 103 1.0 4.0 0.00 0.44 0.01 92 1021.6
20260902140853 66 298 0.0 4.0 0.00 0.44 0.01 92 1021.8
20260902140346 66 230 0.0 2.0 0.00 0.44 0.01 92 1021.8
20260902140115 65 207 0.0 2.0 0.00 0.44 0.01 92 1021.4
20260902140052 65 209 0.0 2.0 0.00 0.44 0.01 92 1021.4
20260902135852 66 306 1.0 2.0 0.00 0.45 0.01 92 1021.9
20260902135342 66 337 1.0 2.0 0.00 0.45 0.01 93 1021.8
20260902134836 65 298 0.0 2.0 0.00 0.45 0.01 93 1021.6
20260902134547 65 0 0.0 2.0 0.00 0.45 0.01 92 1021.3
20260902134505 65 355 0.0 2.0 0.00 0.45 0.01 93 1021.3
20260902134402 65 292 0.0 2.0 0.00 0.45 0.01 93 1021.6
20260902133851 65 335 0.0 3.0 0.00 0.45 0.01 93 1021.4
20260902133403 65 72 0.0 3.0 0.00 0.45 0.01 93 1021.4
20260902133111 64 72 0.0 3.0 0.00 0.45 0.01 93 1020.9
20260902133051 64 54 0.0 3.0 0.00 0.45 0.01 93 1020.8
20260902132849 65 222 1.0 2.0 0.00 0.45 0.01 93 1021.3
20260902132343 64 278 0.0 1.0 0.00 0.45 0.01 93 1021.2
20260902131852 64 300 0.0 2.0 0.00 0.45 0.01 93 1021.2
20260902131553 64 277 0.0 2.0 0.00 0.45 0.01 93 1020.7
20260902131504 64 264 0.0 2.0 0.00 0.45 0.01 93 1020.8
20260902131403 64 147 0.0 2.0 0.00 0.45 0.01 94 1021.2
20260902130852 64 298 0.0 3.0 0.00 0.45 0.01 93 1021.1
20260902130401 64 355 1.0 3.0 0.00 0.45 0.01 93 1021.1
20260902130123 63 18 0.0 2.0 0.00 0.45 0.01 93 1020.8
20260902130048 63 18 0.0 2.0 0.00 0.45 0.01 93 1020.7
20260902125847 64 355 0.0 2.0 0.00 0.45 0.01 94 1021.2
20260902125337 63 344 1.0 2.0 0.00 0.45 0.01 94 1021.3
20260902124848 63 355 0.0 1.0 0.00 0.45 0.01 94 1021.3
20260902124555 63 0 0.0 4.0 0.00 0.45 0.01 93 1020.8
20260902124338 63 360 0.0 4.0 0.00 0.45 0.01 94 1021.3
20260902123849 63 360 2.0 4.0 0.00 0.45 0.01 94 1021.2
20260902123420 63 348 0.0 3.0 0.00 0.45 0.01 94 1021.2
20260902123141 63 15 1.0 3.0 0.00 0.45 0.01 94 1020.8
20260902123059 63 316 0.0 2.0 0.00 0.45 0.01 93 1020.7
20260902122846 63 360 1.0 2.0 0.00 0.45 0.01 94 1021.2
20260902122356 63 257 0.0 4.0 0.00 0.45 0.01 94 1021.1
20260902121907 63 22 2.0 4.0 0.00 0.45 0.01 94 1021.0
20260902121607 62 5 1.0 4.0 0.00 0.45 0.01 94 1020.6
20260902121353 63 53 1.0 4.0 0.00 0.45 0.01 94 1021.1
20260902120843 63 5 2.0 3.0 0.00 0.45 0.01 94 1021.1
20260902120352 63 318 1.0 3.0 0.00 0.45 0.01 94 1021.0
20260902120113 62 257 0.0 9.0 0.00 0.45 0.01 94 1020.5
20260902120058 62 256 0.0 9.0 0.00 0.45 0.01 93 1020.6
20260902115839 63 321 1.0 9.0 0.00 0.46 0.01 94 1021.0
20260902115349 63 303 2.0 9.0 0.00 0.46 0.01 94 1021.1
20260902114839 62 24 1.0 4.0 0.00 0.46 0.01 94 1021.1
20260902114612 62 300 0.0 2.0 0.00 0.46 0.01 94 1020.7
20260902114605 62 0 0.0 3.0 0.00 0.46 0.01 93 1020.6
20260902114351 62 316 0.0 3.0 0.00 0.46 0.01 94 1021.1
20260902113842 62 346 1.0 4.0 0.00 0.46 0.01 94 1021.1
20260902113353 62 350 3.0 5.0 0.00 0.46 0.01 94 1021.1
20260902113119 62 9 2.0 5.0 0.00 0.46 0.01 94 1020.7
20260902113059 62 9 2.0 5.0 0.00 0.46 0.01 93 1020.6
20260902112841 62 346 2.0 5.0 0.00 0.46 0.01 94 1021.2
20260902112352 62 19 1.0 5.0 0.00 0.46 0.01 94 1021.2
20260902111841 62 342 2.0 5.0 0.00 0.46 0.01 94 1021.1
20260902111609 62 306 0.0 2.0 0.00 0.46 0.01 94 1020.8
20260902111600 62 0 0.0 2.0 0.00 0.46 0.01 93 1020.7
20260902111352 62 337 0.0 2.0 0.00 0.46 0.01 94 1021.2
20260902110843 62 360 0.0 2.0 0.00 0.46 0.01 94 1021.1
20260902110353 62 348 0.0 2.0 0.00 0.46 0.01 94 1021.0
20260902110118 62 348 0.0 4.0 0.00 0.46 0.01 94 1020.6
20260902110044 62 0 0.0 4.0 0.00 0.46 0.01 93 1020.6
20260902105841 62 348 1.0 4.0 0.00 0.46 0.01 94 1021.0
20260902105352 62 340 0.0 2.0 0.00 0.46 0.01 94 1021.0
20260902104842 62 355 0.0 3.0 0.00 0.46 0.01 94 1021.0
20260902104611 62 350 0.0 4.0 0.00 0.46 0.01 94 1020.5
20260902104552 62 0 1.0 4.0 0.00 0.46 0.01 93 1020.6
20260902104353 63 338 1.0 4.0 0.00 0.46 0.01 94 1020.9
20260902103844 63 302 1.0 4.0 0.00 0.46 0.01 94 1020.8
20260902103339 63 309 0.0 4.0 0.00 0.46 0.01 94 1020.9
20260902103120 62 313 0.0 4.0 0.00 0.46 0.01 94 1020.4
20260902103109 62 336 0.0 4.0 0.00 0.46 0.01 94 1020.4
20260902102846 63 355 1.0 4.0 0.00 0.46 0.01 94 1020.7
20260902102354 63 351 0.0 3.0 0.00 0.46 0.01 94 1020.6
20260902101843 63 351 1.0 4.0 0.00 0.46 0.01 94 1020.6
20260902101608 63 19 1.0 4.0 0.00 0.46 0.01 94 1020.1
20260902101546 63 0 1.0 4.0 0.00 0.46 0.01 94 1020.3
20260902101351 63 360 2.0 4.0 0.00 0.46 0.01 94 1020.5
20260902100839 63 355 0.0 2.0 0.01 0.46 0.01 94 1020.5
20260902100349 63 338 1.0 2.0 0.01 0.46 0.01 94 1020.5
20260902100110 63 277 0.0 4.0 0.01 0.46 0.01 94 1020.0
20260902100055 63 0 0.0 4.0 0.01 0.46 0.01 94 1020.1
20260902095856 63 277 0.0 4.0 0.01 0.46 0.01 94 1020.4
20260902095343 63 349 2.0 4.0 0.01 0.46 0.01 94 1020.5
20260902094852 63 305 0.0 1.0 0.01 0.46 0.01 94 1020.5
20260902094559 63 0 0.0 1.0 0.01 0.46 0.01 94 1020.2
20260902094502 63 305 0.0 1.0 0.01 0.46 0.01 94 1020.0
20260902094401 63 348 0.0 0.0 0.01 0.46 0.01 94 1020.5
20260902093851 64 348 0.0 1.0 0.01 0.46 0.01 94 1020.4
20260902093341 64 348 0.0 1.0 0.01 0.46 0.01 94 1020.4
20260902093105 63 348 0.0 1.0 0.01 0.46 0.01 94 1020.0
20260902093101 63 0 0.0 2.0 0.01 0.46 0.01 94 1020.1
20260902092848 64 348 0.0 2.0 0.01 0.46 0.01 94 1020.4
20260902092338 64 242 1.0 2.0 0.01 0.46 0.01 94 1020.4
20260902091849 64 261 0.0 2.0 0.01 0.46 0.01 94 1020.4
20260902091618 63 255 0.0 2.0 0.01 0.46 0.01 94 1019.9
20260902091556 63 0 0.0 2.0 0.01 0.46 0.01 94 1020.0
20260902091339 64 255 0.0 2.0 0.00 0.45 0.00 94 1020.4
20260902090910 64 255 0.0 2.0 0.00 0.45 0.00 94 1020.4
20260902090340 64 228 0.0 2.0 0.00 0.45 0.00 94 1020.4
20260902090106 63 257 0.0 2.0 0.00 0.45 0.00 94 1019.8
20260902090100 63 0 0.0 2.0 0.00 0.45 0.00 94 1019.9
20260902085847 64 257 0.0 2.0 0.00 0.46 0.00 94 1020.3
20260902085339 64 257 1.0 3.0 0.00 0.46 0.00 94 1020.2
20260902084848 64 355 0.0 3.0 0.00 0.46 0.00 94 1020.1
20260902084617 63 161 0.0 3.0 0.00 0.46 0.00 94 1019.6
20260902084552 63 0 0.0 3.0 0.00 0.46 0.00 93 1019.6
20260902084359 64 272 0.0 1.0 0.00 0.46 0.00 94 1019.9
20260902083848 64 272 0.0 1.0 0.00 0.46 0.00 94 1019.9
20260902083339 64 272 0.0 2.0 0.00 0.46 0.00 94 1019.9
20260902083138 63 272 0.0 2.0 0.00 0.46 0.00 94 1019.4
20260902083047 63 0 0.0 2.0 0.00 0.46 0.00 93 1019.4
20260902082846 64 272 0.0 2.0 0.00 0.46 0.00 94 1019.8
20260902082336 64 360 0.0 1.0 0.00 0.46 0.00 94 1019.8
20260902081847 64 360 0.0 2.0 0.00 0.46 0.00 94 1019.7
20260902081615 63 24 0.0 3.0 0.00 0.46 0.00 94 1019.3
20260902081556 63 0 0.0 3.0 0.00 0.46 0.00 93 1019.4
20260902081337 64 24 0.0 3.0 0.00 0.46 0.00 94 1019.7
20260902080848 64 5 1.0 3.0 0.00 0.46 0.00 94 1019.6
20260902080359 64 317 0.0 3.0 0.00 0.46 0.00 94 1019.6
20260902080051 63 317 0.0 3.0 0.00 0.46 0.00 93 1019.2
20260902075905 64 323 0.0 2.0 0.00 0.46 0.00 94 1019.6
20260902075415 64 317 0.0 6.0 0.00 0.46 0.00 94 1019.5
20260902074844 64 355 1.0 8.0 0.00 0.46 0.00 94 1019.5
20260902074614 63 291 1.0 8.0 0.00 0.46 0.00 94 1019.0
20260902074603 63 122 1.0 8.0 0.00 0.46 0.00 93 1018.9
20260902074335 64 338 1.0 2.0 0.00 0.46 0.00 94 1019.4
20260902073906 64 296 0.0 3.0 0.00 0.46 0.00 94 1019.4
20260902073356 64 20 2.0 3.0 0.00 0.46 0.00 94 1019.5
20260902073049 63 0 0.0 1.0 0.00 0.46 0.00 93 1019.1
20260902073004 63 350 0.0 1.0 0.00 0.46 0.00 94 1019.1
20260902072903 64 350 0.0 1.0 0.00 0.46 0.00 94 1019.4
20260902072352 64 350 0.0 1.0 0.00 0.46 0.00 94 1019.4
20260902071842 64 350 0.0 3.0 0.00 0.46 0.00 94 1019.4
20260902071610 63 27 0.0 3.0 0.00 0.46 0.00 94 1018.9
20260902071546 63 0 0.0 4.0 0.00 0.46 0.00 93 1018.9
20260902071352 64 355 1.0 3.0 0.00 0.46 0.00 94 1019.3
20260902070842 64 345 0.0 4.0 0.00 0.46 0.00 94 1019.2
20260902070353 64 320 0.0 2.0 0.00 0.46 0.00 94 1019.3
20260902070119 63 13 0.0 2.0 0.00 0.46 0.00 94 1018.9
20260902070047 63 0 0.0 2.0 0.00 0.46 0.00 93 1018.8
20260902065842 64 234 0.0 2.0 0.00 0.57 0.00 94 1019.3
20260902065408 64 321 0.0 2.0 0.00 0.57 0.00 94 1019.4
20260902064842 64 173 0.0 5.0 0.00 0.57 0.00 94 1019.3
20260902064606 63 360 0.0 5.0 0.00 0.56 0.00 94 1018.9
20260902064554 63 360 0.0 5.0 0.00 0.57 0.00 93 1018.9
20260902064353 64 360 2.0 5.0 0.00 0.57 0.00 94 1019.4
20260902063842 64 355 1.0 3.0 0.00 0.57 0.00 94 1019.5
20260902063355 64 355 1.0 3.0 0.00 0.57 0.00 94 1019.5
20260902063115 63 252 0.0 2.0 0.00 0.56 0.00 94 1019.0
20260902063046 63 0 0.0 4.0 0.00 0.57 0.00 93 1019.0
20260902062842 64 252 0.0 4.0 0.00 0.57 0.00 94 1019.4
20260902062353 64 355 0.0 4.0 0.00 0.57 0.00 94 1019.5
20260902061844 64 340 0.0 3.0 0.00 0.57 0.00 94 1019.6
20260902061608 63 338 0.0 4.0 0.00 0.56 0.00 94 1019.1
20260902061555 63 304 0.0 4.0 0.00 0.57 0.00 93 1019.2
20260902061415 64 342 1.0 4.0 0.00 0.57 0.00 94 1019.6
20260902060842 64 17 0.0 5.0 0.00 0.57 0.00 94 1019.6
20260902060353 64 17 2.0 5.0 0.00 0.57 0.00 94 1019.6
20260902060052 64 0 0.0 4.0 0.00 0.57 0.00 93 1019.2
20260902060001 64 5 0.0 4.0 0.00 1.12 0.00 94 1019.3
20260902055900 64 5 0.0 4.0 0.00 1.13 0.00 94 1019.7
20260902055350 64 278 0.0 4.0 0.00 1.13 0.00 94 1019.7
20260902054841 64 327 0.0 2.0 0.00 1.13 0.00 94 1019.7
20260902054609 64 327 0.0 2.0 0.00 1.12 0.00 94 1019.3
20260902054554 64 0 0.0 2.0 0.00 1.14 0.00 93 1019.3
20260902054352 64 329 0.0 1.0 0.00 1.13 0.00 94 1019.7
20260902053902 64 329 0.0 3.0 0.00 1.13 0.00 94 1019.6
20260902053414 64 329 1.0 3.0 0.00 1.13 0.00 94 1019.6
20260902053114 63 350 0.0 3.0 0.00 1.12 0.00 94 1019.1
20260902053100 63 0 0.0 3.0 0.00 1.14 0.00 93 1019.1
20260902052900 64 350 0.0 3.0 0.00 1.13 0.00 94 1019.5
20260902052351 64 348 1.0 3.0 0.00 1.13 0.00 93 1019.6
20260902051840 64 350 2.0 3.0 0.00 1.13 0.00 93 1019.6
20260902051606 63 9 1.0 3.0 0.00 1.12 0.00 93 1019.1
20260902051553 64 313 0.0 4.0 0.00 1.14 0.00 93 1019.2
20260902051409 64 336 0.0 4.0 0.00 1.13 0.00 93 1019.6
20260902050838 64 336 2.0 4.0 0.00 1.13 0.00 93 1019.7
20260902050349 64 14 1.0 4.0 0.00 1.13 0.00 93 1019.6
20260902050114 64 335 2.0 4.0 0.00 1.12 0.00 93 1019.0
20260902050045 64 314 0.0 3.0 0.00 1.14 0.00 93 1019.2
20260902045837 64 330 0.0 3.0 0.00 1.42 0.00 93 1019.5
20260902045348 64 350 1.0 3.0 0.00 1.42 0.00 93 1019.5
20260902044837 64 346 2.0 3.0 0.00 1.42 0.00 93 1019.4
20260902044605 64 304 0.0 3.0 0.00 1.42 0.00 93 1018.9
20260902044555 64 0 0.0 3.0 0.00 1.42 0.00 93 1019.0
20260902044347 64 324 0.0 3.0 0.00 1.42 0.00 93 1019.4
20260902043838 64 109 0.0 2.0 0.00 1.42 0.00 93 1019.4
20260902043349 64 275 1.0 2.0 0.00 1.42 0.00 93 1019.5
20260902043116 64 36 0.0 1.0 0.00 1.42 0.00 93 1019.0
20260902043058 64 0 0.0 4.0 0.00 1.42 0.00 92 1019.1
20260902042855 64 38 0.0 4.0 0.00 1.42 0.00 93 1019.4
20260902042406 64 44 0.0 4.0 0.00 1.42 0.00 93 1019.4
20260902041916 64 261 1.0 6.0 0.00 1.42 0.00 93 1019.3
20260902041545 64 14 0.0 6.0 0.00 1.42 0.00 92 1018.9
20260902041507 64 38 0.0 6.0 0.00 1.42 0.00 93 1018.9
20260902041404 64 38 1.0 6.0 0.00 1.42 0.00 93 1019.3
20260902040853 64 304 1.0 4.0 0.00 1.42 0.00 93 1019.3
20260902040343 64 300 1.0 4.0 0.00 1.42 0.00 93 1019.2
20260902040111 64 267 0.0 4.0 0.00 1.42 0.00 93 1018.7
20260902040058 64 0 0.0 2.0 0.00 1.42 0.00 92 1018.8
20260902035913 64 340 0.0 2.0 0.00 1.42 1.42 93 1019.1
20260902035402 65 317 1.0 4.0 0.00 1.42 1.42 93 1019.0
20260902034852 65 87 1.0 5.0 0.00 1.42 1.42 93 1019.0
20260902034604 64 0 0.0 2.0 0.00 1.42 1.42 92 1018.6
20260902034503 64 338 0.0 2.0 0.00 1.42 1.42 93 1018.5
20260902034402 65 338 0.0 2.0 0.00 1.42 1.42 93 1019.0
20260902033850 65 315 0.0 2.0 0.00 1.42 1.42 93 1018.9
20260902033341 65 248 0.0 2.0 0.00 1.42 1.42 93 1019.0
20260902033106 64 158 0.0 2.0 0.00 1.42 1.42 93 1018.5
20260902033056 64 0 0.0 4.0 0.00 1.42 1.42 92 1018.5
20260902032909 65 157 1.0 4.0 0.00 1.42 1.42 93 1018.8
20260902032338 65 194 1.0 4.0 0.00 1.42 1.42 93 1018.6
20260902031909 65 269 1.0 3.0 0.00 1.42 1.42 93 1018.6
20260902031617 64 307 1.0 3.0 0.00 1.42 1.42 93 1017.9
20260902031548 64 5 1.0 3.0 0.00 1.42 1.42 92 1018.1
20260902031339 65 233 1.0 3.0 0.00 1.42 1.42 93 1018.3
20260902030849 65 98 1.0 3.0 0.00 1.42 1.42 93 1018.4
20260902030341 65 329 0.0 3.0 0.00 1.42 1.42 93 1018.5
20260902030108 64 329 0.0 3.0 0.00 1.42 1.42 92 1017.9
20260902030052 64 0 0.0 3.0 0.00 1.42 1.42 92 1018.1
20260902025848 65 258 0.0 3.0 0.00 1.42 1.42 92 1018.5
20260902025338 65 209 1.0 3.0 0.00 1.42 1.42 92 1018.6
20260902024850 65 127 1.0 3.0 0.00 1.42 1.42 93 1018.5
20260902024617 65 276 0.0 3.0 0.00 1.42 1.42 93 1017.9
20260902024553 65 0 0.0 7.0 0.00 1.42 1.42 92 1018.1
20260902024339 65 281 0.0 7.0 0.00 1.42 1.42 93 1018.3
20260902023850 65 248 1.0 7.0 0.00 1.42 1.42 92 1018.5
20260902023341 65 257 2.0 6.0 0.00 1.42 1.42 92 1018.3
20260902023106 65 308 0.0 6.0 0.00 1.42 1.42 92 1017.8
20260902023053 65 0 0.0 3.0 0.00 1.42 1.42 92 1017.9
20260902022848 65 274 0.0 3.0 0.00 1.42 1.42 92 1018.3
20260902022340 65 360 1.0 3.0 0.00 1.42 1.42 92 1018.4
20260902021851 65 326 1.0 4.0 0.00 1.42 1.42 92 1018.3
20260902021619 65 52 0.0 4.0 0.00 1.42 1.42 92 1017.7
20260902021555 65 0 0.0 4.0 0.00 1.42 1.42 92 1017.9
20260902021344 65 28 0.0 4.0 0.00 1.42 1.42 92 1018.3
20260902020852 65 311 1.0 6.0 0.00 1.42 1.42 92 1018.3
20260902020359 66 360 3.0 6.0 0.00 1.42 1.42 92 1018.2
20260902020118 65 339 0.0 5.0 0.00 1.42 1.42 92 1017.7
20260902020100 65 312 0.0 6.0 0.00 1.42 1.42 91 1017.9
20260902015844 66 46 2.0 5.0 0.00 1.42 1.42 92 1018.2
20260902015351 66 257 2.0 5.0 0.00 1.42 1.42 92 1018.2
20260902014859 66 122 0.0 3.0 0.00 1.42 1.42 92 1018.0
20260902014622 65 122 0.0 3.0 0.00 1.42 1.42 92 1017.4
20260902014551 65 0 0.0 3.0 0.00 1.42 1.42 91 1017.6
20260902014348 66 122 1.0 3.0 0.00 1.42 1.42 92 1017.9
20260902013836 66 80 1.0 3.0 0.00 1.42 1.42 92 1017.6
20260902013342 66 92 0.0 6.0 0.00 1.42 1.42 92 1017.6
20260902013103 66 252 1.0 6.0 0.00 1.42 1.42 92 1017.1
20260902013049 66 252 2.0 6.0 0.00 1.42 1.42 91 1017.3
20260902012909 66 240 2.0 6.0 0.00 1.42 1.42 92 1017.6
20260902012418 66 355 1.0 6.0 0.00 1.42 1.42 92 1017.5
20260902011846 67 337 0.0 5.0 0.00 1.42 1.42 92 1017.4
20260902011609 66 343 0.0 5.0 0.00 1.42 1.42 92 1016.9
20260902011555 66 0 0.0 6.0 0.00 1.42 1.42 91 1017.2
20260902011353 67 274 1.0 5.0 0.00 1.42 1.42 92 1017.4
20260902010841 67 290 2.0 5.0 0.00 1.42 1.42 92 1017.3
20260902010351 67 346 3.0 5.0 0.00 1.42 1.42 92 1017.2
20260902010109 67 332 1.0 4.0 0.00 1.42 1.42 92 1016.6
20260902010056 67 225 0.0 4.0 0.00 1.42 1.42 91 1016.9
20260902005835 67 329 1.0 4.0 0.00 1.42 1.42 92 1017.1
20260902005351 67 344 1.0 5.0 0.00 1.42 1.42 92 1017.0
20260902004838 67 64 2.0 8.0 0.00 1.42 1.42 92 1017.0
20260902004605 67 46 0.0 8.0 0.00 1.42 1.42 92 1016.6
20260902004550 67 65 1.0 8.0 0.00 1.42 1.42 91 1016.9
20260902004348 67 107 2.0 8.0 0.00 1.42 1.42 91 1017.2
20260902003858 68 148 0.0 3.0 0.00 1.42 1.42 91 1017.1
20260902003349 68 215 2.0 7.0 0.00 1.42 1.42 91 1017.1
20260902003118 67 250 1.0 7.0 0.00 1.42 1.42 92 1016.6
20260902003053 67 0 1.0 8.0 0.00 1.42 1.42 91 1017.1
20260902002855 68 176 1.0 4.0 0.00 1.42 1.42 92 1017.1
20260902002406 68 188 2.0 5.0 0.00 1.42 1.42 92 1016.7
20260902001853 68 232 2.0 5.0 0.00 1.42 1.42 91 1016.7
20260902001623 68 337 1.0 4.0 0.00 1.42 1.42 91 1016.0
20260902001559 68 327 0.0 4.0 0.00 1.42 1.42 91 1016.3
20260902001343 68 157 0.0 4.0 0.00 1.42 1.42 92 1016.4
20260902000854 69 73 1.0 4.0 0.00 1.42 1.42 91 1016.4
20260902000345 69 316 2.0 5.0 0.00 1.42 1.42 91 1016.4
20260902000109 68 267 2.0 5.0 0.00 1.42 1.42 91 1015.9
20260902000056 69 295 1.0 5.0 0.00 1.42 1.42 91 1016.2
20260901235853 69 89 1.0 5.0 0.00 1.42 1.42 91 1016.4
20260901235344 69 188 2.0 8.0 0.00 1.42 1.42 92 1016.4
20260901234854 70 360 1.0 8.0 0.00 1.42 1.42 92 1016.4
20260901234603 69 294 1.0 8.0 0.00 1.42 1.42 92 1015.9
20260901234559 69 136 0.0 8.0 0.00 1.42 1.42 91 1016.3
20260901234345 70 161 0.0 7.0 0.00 1.42 1.42 92 1016.4
20260901233855 70 274 2.0 5.0 0.00 1.42 1.42 92 1016.5
20260901233346 71 225 1.0 7.0 0.00 1.42 1.42 92 1016.5
20260901233110 70 187 0.0 7.0 0.00 1.42 1.42 92 1015.8
20260901233058 70 0 0.0 8.0 0.00 1.42 1.42 91 1016.3
20260901232852 71 254 2.0 7.0 0.00 1.42 1.42 92 1016.4
20260901232344 71 238 1.0 5.0 0.00 1.42 1.42 92 1016.2
20260901231855 72 248 0.0 5.0 0.00 1.42 1.42 92 1016.2
20260901231623 71 5 1.0 5.0 0.00 1.42 1.42 92 1015.4
20260901231549 72 230 1.0 3.0 0.00 1.42 1.42 92 1015.8
20260901231344 72 105 1.0 3.0 0.00 1.42 1.42 92 1015.9
20260901230915 73 194 1.0 5.0 0.00 1.42 1.42 92 1015.9
20260901230346 73 278 1.0 5.0 0.00 1.42 1.42 92 1015.8
20260901230110 72 173 0.0 5.0 0.00 1.42 1.42 92 1015.3
20260901230054 72 0 0.0 5.0 0.00 1.42 1.42 91 1015.8
20260901225852 73 64 1.0 5.0 0.00 1.42 1.42 92 1015.9
20260901225343 74 223 1.0 4.0 0.00 1.42 1.42 92 1015.8
20260901224837 74 141 0.0 4.0 0.00 1.42 1.42 92 1015.6
20260901224623 74 130 1.0 4.0 0.00 1.42 1.42 92 1015.0
20260901224555 74 178 0.0 4.0 0.00 1.42 1.42 91 1015.4
20260901224348 74 144 0.0 4.0 0.00 1.42 1.42 92 1015.4
20260901223857 75 154 1.0 6.0 0.00 1.42 1.42 92 1015.3
20260901223344 75 166 1.0 6.0 0.00 1.42 1.42 92 1015.4
20260901223108 75 242 2.0 6.0 0.00 1.42 1.42 92 1014.9
20260901223048 75 131 2.0 6.0 0.00 1.42 1.42 92 1015.3
20260901222849 76 161 1.0 3.0 0.00 1.42 1.42 92 1015.3
20260901222338 76 147 1.0 3.0 0.00 1.42 1.42 92 1015.1
20260901221908 76 152 1.0 3.0 0.00 1.42 1.42 92 1015.0
20260901221609 76 86 0.0 2.0 0.00 1.42 1.42 92 1014.5
20260901221556 76 0 0.0 2.0 0.00 1.42 1.42 92 1014.9
20260901221356 76 86 1.0 2.0 0.00 1.42 1.42 92 1015.1
20260901220844 76 63 0.0 1.0 0.00 1.42 1.42 92 1015.1
20260901220353 76 38 0.0 1.0 0.00 1.42 1.42 92 1015.1
20260901220127 76 38 0.0 4.0 0.00 1.42 1.42 92 1014.6
20260901220114 76 0 0.0 4.0 0.00 1.42 1.42 92 1015.1
20260901215838 76 38 0.0 4.0 0.00 1.42 1.42 92 1015.2
20260901215348 77 180 0.0 3.0 0.00 1.42 1.42 92 1015.1
20260901214854 76 151 0.0 3.0 0.00 1.42 1.42 92 1015.1
20260901214619 76 151 0.0 3.0 0.00 1.42 1.42 92 1014.6
20260901214546 76 0 0.0 4.0 0.00 1.42 1.42 92 1015.0
20260901214342 76 151 1.0 3.0 0.00 1.42 1.42 92 1015.2
20260901213853 76 202 1.0 4.0 0.00 1.42 1.42 92 1015.1
20260901213345 77 136 1.0 4.0 0.00 1.42 1.42 92 1015.1
20260901213115 76 173 1.0 4.0 0.00 1.42 1.42 92 1014.6
20260901213045 76 157 0.0 1.0 0.00 1.42 1.42 91 1015.0
20260901212851 77 244 0.0 1.0 0.00 1.42 1.42 92 1015.1
20260901212340 77 244 0.0 1.0 0.00 1.42 1.42 91 1015.1
20260901211912 77 244 0.0 1.0 0.00 1.42 1.42 91 1015.1
20260901211618 76 244 0.0 1.0 0.00 1.42 1.42 91 1014.4
20260901211554 76 0 0.0 1.0 0.00 1.42 1.42 91 1014.9
20260901211341 77 244 0.0 1.0 0.00 1.42 1.42 91 1015.0
20260901210851 77 244 0.0 0.0 0.00 1.42 1.42 91 1015.0
20260901210402 77 244 0.0 0.0 0.00 1.42 1.42 91 1014.9
20260901210107 77 244 0.0 0.0 0.00 1.42 1.42 91 1014.4
20260901210052 77 0 0.0 0.0 0.00 1.42 1.42 90 1014.8
20260901205909 77 244 0.0 0.0 0.00 1.42 1.42 90 1015.0
20260901205338 77 244 0.0 0.0 0.00 1.42 1.42 90 1015.0
20260901204910 77 244 0.0 0.0 0.00 1.42 1.42 90 1015.1
20260901204618 77 244 0.0 0.0 0.00 1.42 1.42 90 1014.5
20260901204546 77 0 0.0 0.0 0.00 1.42 1.42 90 1014.8
20260901204339 78 244 0.0 0.0 0.00 1.42 1.42 90 1015.0
20260901203849 78 244 0.0 0.0 0.00 1.42 1.42 90 1015.0